Weather in Taush

Russia / Perm Krai     56°25′37″N   56°04′47″E
temp.,
°C
wind,
m/s
gust,
m/s
humid.,
%
clouds,
%
prec.,
mm/h
press.,
hPa
HPBL,
m
28 february, sun
sun2823:00−13e51094100 0.9 1005345
02:00−13e5895100 0.4 1004313
05:00−14ene5994100 0.6 1004313
08:00−14ene599498 0.3 1004325
11:00−12ne699198 0.4 1004414
14:00−9ene589097 0.2 1005518
17:00−9ne589098 0.3 1006591
20:00−12ne599389 0.1 1008290
1 march, mon
mon123:00−13ne589386 0.2 1010287
02:00−14ne489491 0.1 1011305
05:00−16ne479488 0.2 1013245
08:00−17ne479591 0.1 1015239
11:00−15ne469282 0.1 1016363
14:00−12ne348698 0.1 1016488
17:00−11nne228599 0.1 1017553
20:00−15sw1197100 0.1 101720
2 march, tue
tue223:00−17wsw239999 0.1 101725
02:00−19sw3610098 0.1 101696
05:00−21ssw51010098 0.1 1014219
08:00−20s61198100 0.0 1011306
11:00−17s71296100 0.3 1008395
14:00−14ssw81395100 0.9 1005532
17:00−12s71294100 1.3 1003611
20:00−11s71294100 0.5 1001517
3 march, wed
wed323:00−11s71494100 0.9 1000444
02:00−9s61295100 0.7 998390
05:00−7ssw5996100 1.9 998333
08:00−5wsw479799 0.7 997228
11:00−7w359480 0.7 998237
14:00−3wsw479490 0.2 999530
17:00−3w579195 0.4 1000780
20:00−6wnw4994100 0.2 1000332
4 march, thu
thu423:00−9w489597 0.3 1003216
02:00−12wnw459786 0.1 100374
05:00−14w349877 0.1 100443
08:00−13wsw3796100 0.3 1004163
11:00−10sw479599 0.3 1004292
14:00−7sw5893100 0.1 1003537
17:00−6ssw71193100 0.3 1001662
20:00−6ssw81395100 0.8 998781